Time,TemperatureF,DewpointF,PressureIn,WindDirection,WindDirectionDegrees,WindSpeedMPH,WindSpeedGustMPH,Humidity,HourlyPrecipIn,Conditions,Clouds,dailyrainin,SolarRadiationWatts/m^2,SoftwareType,DateUTC
2013-02-28 00:22:00,45.0,33.0,-100.00,NW,318,6.0,12.0,62,0.00,,,0.00,0.000000,,2013-02-28 05:22:00,
2013-02-28 00:32:00,45.0,33.0,-100.00,NW,318,6.0,12.0,62,0.00,,,0.00,0.000000,,2013-02-28 05:32:00,
2013-02-28 00:43:00,45.0,33.0,-100.00,NW,318,6.0,12.0,62,0.00,,,0.00,0.000000,,2013-02-28 05:43:00,
2013-02-28 00:52:00,45.0,33.0,-100.00,NW,318,6.0,12.0,62,0.00,,,0.00,0.000000,,2013-02-28 05:52:00,
2013-02-28 01:01:00,45.0,33.0,-100.00,NW,318,6.0,12.0,62,0.00,,,0.00,0.000000,,2013-02-28 06:01:00,
2013-02-28 01:32:00,44.0,32.0,-100.00,NW,321,7.0,12.0,62,0.00,,,0.00,0.000000,,2013-02-28 06:32:00,
2013-02-28 01:42:00,44.0,32.0,-100.00,NW,321,7.0,12.0,62,0.00,,,0.00,0.000000,,2013-02-28 06:42:00,
2013-02-28 01:52:00,44.0,32.0,-100.00,NW,321,7.0,12.0,62,0.00,,,0.00,0.000000,,2013-02-28 06:52:00,
2013-02-28 02:01:00,44.0,32.0,-100.00,NW,321,7.0,12.0,62,0.00,,,0.00,0.000000,,2013-02-28 07:01:00,
2013-02-28 02:22:00,41.0,29.0,-100.00,NW,314,6.0,12.0,61,0.00,,,0.00,0.000000,,2013-02-28 07:22:00,
2013-02-28 02:32:00,41.0,29.0,-100.00,NW,314,6.0,12.0,61,0.00,,,0.00,0.000000,,2013-02-28 07:32:00,
2013-02-28 02:42:00,41.0,29.0,-100.00,NW,314,6.0,12.0,61,0.00,,,0.00,0.000000,,2013-02-28 07:42:00,
2013-02-28 02:52:00,41.0,29.0,-100.00,NW,314,6.0,12.0,61,0.00,,,0.00,0.000000,,2013-02-28 07:52:00,
2013-02-28 03:01:00,41.0,29.0,-100.00,NW,314,6.0,12.0,61,0.00,,,0.00,0.000000,,2013-02-28 08:01:00,
2013-02-28 03:02:00,40.0,29.0,-100.00,NW,316,5.0,11.0,65,0.00,,,0.00,0.000000,,2013-02-28 08:02:00,
2013-02-28 03:32:00,40.0,29.0,-100.00,NW,316,5.0,11.0,65,0.00,,,0.00,0.000000,,2013-02-28 08:32:00,
2013-02-28 03:42:00,40.0,29.0,-100.00,NW,316,5.0,11.0,65,0.00,,,0.00,0.000000,,2013-02-28 08:42:00,
2013-02-28 03:53:00,40.0,29.0,-100.00,NW,316,5.0,11.0,65,0.00,,,0.00,0.000000,,2013-02-28 08:53:00,
2013-02-28 04:02:00,39.0,25.0,-100.00,NW,320,6.0,12.0,58,0.00,,,0.00,0.000000,,2013-02-28 09:02:00,
2013-02-28 04:32:00,39.0,25.0,-100.00,NW,320,6.0,12.0,58,0.00,,,0.00,0.000000,,2013-02-28 09:32:00,
2013-02-28 04:42:00,39.0,25.0,-100.00,NW,320,6.0,12.0,58,0.00,,,0.00,0.000000,,2013-02-28 09:42:00,
2013-02-28 04:52:00,39.0,25.0,-100.00,NW,320,6.0,12.0,58,0.00,,,0.00,0.000000,,2013-02-28 09:52:00,
2013-02-28 05:02:00,37.0,24.0,-100.00,NNW,329,5.0,10.0,58,0.00,,,0.00,0.000000,,2013-02-28 10:02:00,
2013-02-28 05:32:00,37.0,24.0,-100.00,NNW,329,5.0,10.0,58,0.00,,,0.00,0.000000,,2013-02-28 10:32:00,
2013-02-28 05:42:00,37.0,24.0,-100.00,NNW,329,5.0,10.0,58,0.00,,,0.00,0.000000,,2013-02-28 10:42:00,
2013-02-28 05:52:00,37.0,24.0,-100.00,NNW,329,5.0,10.0,58,0.00,,,0.00,0.000000,,2013-02-28 10:52:00,
2013-02-28 06:02:00,36.0,25.0,-100.00,NW,323,3.0,6.0,63,0.00,,,0.00,0.000000,,2013-02-28 11:02:00,
2013-02-28 06:32:00,36.0,25.0,-100.00,NW,323,3.0,6.0,63,0.00,,,0.00,0.000000,,2013-02-28 11:32:00,
2013-02-28 06:42:00,36.0,25.0,-100.00,NW,323,3.0,6.0,63,0.00,,,0.00,0.000000,,2013-02-28 11:42:00,
2013-02-28 06:52:00,36.0,25.0,-100.00,NW,323,3.0,6.0,63,0.00,,,0.00,0.000000,,2013-02-28 11:52:00,
2013-02-28 07:02:00,36.0,26.0,-100.00,WNW,303,3.0,6.0,66,0.00,,,0.00,0.000000,,2013-02-28 12:02:00,
2013-02-28 07:32:00,36.0,26.0,-100.00,WNW,303,3.0,6.0,66,0.00,,,0.00,0.000000,,2013-02-28 12:32:00,
2013-02-28 07:42:00,36.0,26.0,-100.00,WNW,303,3.0,6.0,66,0.00,,,0.00,0.000000,,2013-02-28 12:42:00,
2013-02-28 07:53:00,36.0,26.0,-100.00,WNW,303,3.0,6.0,66,0.00,,,0.00,0.000000,,2013-02-28 12:53:00,
2013-02-28 08:02:00,37.0,26.0,-100.00,WNW,303,3.0,5.0,64,0.00,,,0.00,12.000000,,2013-02-28 13:02:00,
2013-02-28 08:32:00,37.0,26.0,-100.00,WNW,303,3.0,5.0,64,0.00,,,0.00,12.000000,,2013-02-28 13:32:00,
2013-02-28 08:42:00,37.0,26.0,-100.00,WNW,303,3.0,5.0,64,0.00,,,0.00,12.000000,,2013-02-28 13:42:00,
2013-02-28 08:52:00,37.0,26.0,-100.00,WNW,303,3.0,5.0,64,0.00,,,0.00,12.000000,,2013-02-28 13:52:00,
2013-02-28 09:02:00,39.0,28.0,-100.00,NW,306,3.0,9.0,64,0.00,,,0.00,63.000000,,2013-02-28 14:02:00,
2013-02-28 09:22:00,39.0,28.0,-100.00,NW,306,3.0,9.0,64,0.00,,,0.00,63.000000,,2013-02-28 14:22:00,
2013-02-28 09:32:00,39.0,28.0,-100.00,NW,306,3.0,9.0,64,0.00,,,0.00,63.000000,,2013-02-28 14:32:00,
2013-02-28 09:42:00,39.0,28.0,-100.00,NW,306,3.0,9.0,64,0.00,,,0.00,63.000000,,2013-02-28 14:42:00,
2013-02-28 09:52:00,39.0,28.0,-100.00,NW,306,3.0,9.0,64,0.00,,,0.00,63.000000,,2013-02-28 14:52:00,
2013-02-28 10:02:00,42.0,28.0,-100.00,NW,316,6.0,11.0,58,0.00,,,0.00,162.000000,,2013-02-28 15:02:00,
2013-02-28 10:32:00,42.0,28.0,-100.00,NW,316,6.0,11.0,58,0.00,,,0.00,162.000000,,2013-02-28 15:32:00,
2013-02-28 10:42:00,42.0,28.0,-100.00,NW,316,6.0,11.0,58,0.00,,,0.00,162.000000,,2013-02-28 15:42:00,
2013-02-28 10:52:00,42.0,28.0,-100.00,NW,316,6.0,11.0,58,0.00,,,0.00,162.000000,,2013-02-28 15:52:00,
2013-02-28 11:02:00,42.0,27.0,-100.00,NW,314,5.0,14.0,56,0.00,,,0.00,144.000000,,2013-02-28 16:02:00,
2013-02-28 11:22:00,42.0,27.0,-100.00,NW,314,5.0,14.0,56,0.00,,,0.00,144.000000,,2013-02-28 16:22:00,
2013-02-28 11:32:00,42.0,27.0,-100.00,NW,314,5.0,14.0,56,0.00,,,0.00,144.000000,,2013-02-28 16:32:00,
2013-02-28 11:43:00,42.0,27.0,-100.00,NW,314,5.0,14.0,56,0.00,,,0.00,144.000000,,2013-02-28 16:43:00,
2013-02-28 11:53:00,42.0,27.0,-100.00,NW,314,5.0,14.0,56,0.00,,,0.00,144.000000,,2013-02-28 16:53:00,
2013-02-28 12:02:00,41.0,28.0,-100.00,NW,326,8.0,14.0,59,0.00,,,0.00,274.000000,,2013-02-28 17:02:00,
2013-02-28 12:32:00,41.0,28.0,-100.00,NW,326,8.0,14.0,59,0.00,,,0.00,274.000000,,2013-02-28 17:32:00,
2013-02-28 12:42:00,41.0,28.0,-100.00,NW,326,8.0,14.0,59,0.00,,,0.00,274.000000,,2013-02-28 17:42:00,
2013-02-28 12:53:00,41.0,28.0,-100.00,NW,326,8.0,14.0,59,0.00,,,0.00,274.000000,,2013-02-28 17:53:00,
2013-02-28 13:02:00,43.0,25.0,-100.00,NW,319,7.0,13.0,48,0.00,,,0.00,299.000000,,2013-02-28 18:02:00,
2013-02-28 13:32:00,43.0,25.0,-100.00,NW,319,7.0,13.0,48,0.00,,,0.00,299.000000,,2013-02-28 18:32:00,
2013-02-28 13:42:00,43.0,25.0,-100.00,NW,319,7.0,13.0,48,0.00,,,0.00,299.000000,,2013-02-28 18:42:00,
2013-02-28 13:52:00,43.0,25.0,-100.00,NW,319,7.0,13.0,48,0.00,,,0.00,299.000000,,2013-02-28 18:52:00,
2013-02-28 14:32:00,44.0,25.0,-100.00,NW,307,7.0,16.0,46,0.00,,,0.00,423.000000,,2013-02-28 19:32:00,
2013-02-28 14:42:00,44.0,25.0,-100.00,NW,307,7.0,16.0,46,0.00,,,0.00,423.000000,,2013-02-28 19:42:00,
2013-02-28 14:52:00,44.0,25.0,-100.00,NW,307,7.0,16.0,46,0.00,,,0.00,423.000000,,2013-02-28 19:52:00,
2013-02-28 15:01:00,44.0,25.0,-100.00,NW,307,7.0,16.0,46,0.00,,,0.00,423.000000,,2013-02-28 20:01:00,
2013-02-28 15:02:00,42.0,25.0,-100.00,NW,324,7.0,15.0,51,0.00,,,0.00,289.000000,,2013-02-28 20:02:00,
2013-02-28 15:22:00,42.0,25.0,-100.00,NW,324,7.0,15.0,51,0.00,,,0.00,289.000000,,2013-02-28 20:22:00,
2013-02-28 15:32:00,42.0,25.0,-100.00,NW,324,7.0,15.0,51,0.00,,,0.00,289.000000,,2013-02-28 20:32:00,
2013-02-28 15:42:00,42.0,25.0,-100.00,NW,324,7.0,15.0,51,0.00,,,0.00,289.000000,,2013-02-28 20:42:00,
2013-02-28 15:52:00,42.0,25.0,-100.00,NW,324,7.0,15.0,51,0.00,,,0.00,289.000000,,2013-02-28 20:52:00,
2013-02-28 16:32:00,40.0,25.0,-100.00,NW,326,8.0,12.0,55,0.00,,,0.00,140.000000,,2013-02-28 21:32:00,
2013-02-28 16:42:00,40.0,25.0,-100.00,NW,326,8.0,12.0,55,0.00,,,0.00,140.000000,,2013-02-28 21:42:00,
2013-02-28 16:52:00,40.0,25.0,-100.00,NW,326,8.0,12.0,55,0.00,,,0.00,140.000000,,2013-02-28 21:52:00,
2013-02-28 17:01:00,40.0,25.0,-100.00,NW,326,8.0,12.0,55,0.00,,,0.00,140.000000,,2013-02-28 22:01:00,
2013-02-28 17:22:00,39.0,24.0,-100.00,NW,323,7.0,14.0,54,0.00,,,0.00,75.000000,,2013-02-28 22:22:00,
2013-02-28 17:32:00,39.0,24.0,-100.00,NW,323,7.0,14.0,54,0.00,,,0.00,75.000000,,2013-02-28 22:32:00,
2013-02-28 17:42:00,39.0,24.0,-100.00,NW,323,7.0,14.0,54,0.00,,,0.00,75.000000,,2013-02-28 22:42:00,
2013-02-28 17:52:00,39.0,24.0,-100.00,NW,323,7.0,14.0,54,0.00,,,0.00,75.000000,,2013-02-28 22:52:00,
2013-02-28 18:01:00,39.0,24.0,-100.00,NW,323,7.0,14.0,54,0.00,,,0.00,75.000000,,2013-02-28 23:01:00,
2013-02-28 18:02:00,38.0,23.0,-100.00,NNW,330,6.0,11.0,54,0.00,,,0.00,55.000000,,2013-02-28 23:02:00,
2013-02-28 18:32:00,38.0,23.0,-100.00,NNW,330,6.0,11.0,54,0.00,,,0.00,55.000000,,2013-02-28 23:32:00,
2013-02-28 18:42:00,38.0,23.0,-100.00,NNW,330,6.0,11.0,54,0.00,,,0.00,55.000000,,2013-02-28 23:42:00,
2013-02-28 18:53:00,38.0,23.0,-100.00,NNW,330,6.0,11.0,54,0.00,,,0.00,55.000000,,2013-02-28 23:53:00,
2013-02-28 19:22:00,37.0,24.0,-100.00,NW,321,7.0,12.0,58,0.00,,,0.00,4.000000,,2013-03-01 00:22:00,
2013-02-28 19:32:00,37.0,24.0,-100.00,NW,321,7.0,12.0,58,0.00,,,0.00,4.000000,,2013-03-01 00:32:00,
2013-02-28 19:42:00,37.0,24.0,-100.00,NW,321,7.0,12.0,58,0.00,,,0.00,4.000000,,2013-03-01 00:42:00,
2013-02-28 19:52:00,37.0,24.0,-100.00,NW,321,7.0,12.0,58,0.00,,,0.00,4.000000,,2013-03-01 00:52:00,
2013-02-28 20:01:00,37.0,24.0,-100.00,NW,321,7.0,12.0,58,0.00,,,0.00,4.000000,,2013-03-01 01:01:00,
2013-02-28 20:32:00,36.0,24.0,-100.00,NW,326,7.0,11.0,61,0.00,,,0.00,0.000000,,2013-03-01 01:32:00,
2013-02-28 20:42:00,36.0,24.0,-100.00,NW,326,7.0,11.0,61,0.00,,,0.00,0.000000,,2013-03-01 01:42:00,
2013-02-28 20:52:00,36.0,24.0,-100.00,NW,326,7.0,11.0,61,0.00,,,0.00,0.000000,,2013-03-01 01:52:00,
2013-02-28 21:01:00,36.0,24.0,-100.00,NW,326,7.0,11.0,61,0.00,,,0.00,0.000000,,2013-03-01 02:01:00,
2013-02-28 21:02:00,36.0,25.0,-100.00,NW,321,6.0,12.0,63,0.00,,,0.00,0.000000,,2013-03-01 02:02:00,
2013-02-28 21:22:00,36.0,25.0,-100.00,NW,321,6.0,12.0,63,0.00,,,0.00,0.000000,,2013-03-01 02:22:00,
2013-02-28 21:32:00,36.0,25.0,-100.00,NW,321,6.0,12.0,63,0.00,,,0.00,0.000000,,2013-03-01 02:32:00,
2013-02-28 21:42:00,36.0,25.0,-100.00,NW,321,6.0,12.0,63,0.00,,,0.00,0.000000,,2013-03-01 02:42:00,
2013-02-28 21:52:00,36.0,25.0,-100.00,NW,321,6.0,12.0,63,0.00,,,0.00,0.000000,,2013-03-01 02:52:00,
2013-02-28 22:32:00,36.0,25.0,-100.00,NW,319,6.0,8.0,63,0.00,,,0.00,0.000000,,2013-03-01 03:32:00,
2013-02-28 22:42:00,36.0,25.0,-100.00,NW,319,6.0,8.0,63,0.00,,,0.00,0.000000,,2013-03-01 03:42:00,
2013-02-28 22:52:00,36.0,25.0,-100.00,NW,319,6.0,8.0,63,0.00,,,0.00,0.000000,,2013-03-01 03:52:00,
2013-02-28 23:01:00,36.0,25.0,-100.00,NW,319,6.0,8.0,63,0.00,,,0.00,0.000000,,2013-03-01 04:01:00,
2013-02-28 23:02:00,35.0,23.0,-100.00,NW,326,5.0,9.0,62,0.00,,,0.00,0.000000,,2013-03-01 04:02:00,
2013-02-28 23:42:00,35.0,23.0,-100.00,NW,326,5.0,9.0,62,0.00,,,0.00,0.000000,,2013-03-01 04:42:00,
2013-02-28 23:52:00,35.0,23.0,-100.00,NW,326,5.0,9.0,62,0.00,,,0.00,0.000000,,2013-03-01 04:52:00,